STARLINK-1123, 44930

Orbit data source: Space-Track

STARLINK-1123, 44930 is a payload satellite owned by SpaceX/Seattle (US) in LEO that was launched on Tue, 07 Jan 2020 UTC via an FALCON 9 launch vehicle from the Air Force Eastern Test Range (AFETR). Payload-class satellites include a variety of spacecraft equipped with specific instruments for various scientific and technological missions. These include communications satellites like Starlink; space stations such as the ISS; scientific satellites like the Hubble; Earth observation satellites from companies like Planet Labs, Umbra, and HawkEye 360; GPS; miniature CubeSats for education and research; and military/defense satellites.

Loading next visibility...
Identifier
44930, 2020-001S
Orbit
LEO
Country
Flag of USUS
Related business
Manufacturer
SpaceX/Seattle
Mission
Operational Commercial Communications
Bus & Motor
STARLINK, Unknown motor
Mass
260 kg wet, ~248 kg dry
Launch date (UTC)
2020-01-07 (6 years ago)
Launch vehicle
FALCON 9
Launch site
Air Force Eastern Test Range (AFETR)
Object type
Payload
Rocket body
Debris
Shape & HBR
Box + 1 Pan, 10.1 m
Radar Cross Section
13.562 m², Large (>1 m²)

Expand to show TLE details & history
Last TLE update: 4 hours ago

TLE from 4 hours ago
0 STARLINK-1123
1 44930U 20001S   26119.66670139 -.00002638  00000-0 -34966-4 0  9993
2 44930  53.1494 107.4036 0002048  99.3292  79.7842 15.52404546  5869
Epoch: 2026-04-29T16:00Z
TLE epoch observation values (Epoch: 2026-04-29T16:00:03.000Z)
Latitude
0.61394°
Longitude
-170.69087°
Altitude
410.291 km
Speed
7.666 km/s
True Right ascension
19h 07m 47s
True Declination
0° 36' 36"
Sunlit
Object was in daylight at epoch
Visualization orbit readout
Latitude
Unknown
Longitude
Unknown
Altitude
Unknown
Speed
Unknown
Apparent Right ascension
Unknown
Apparent Declination
Unknown
Sunlit
N/A
Visualization observer readout
Local Sidereal Time
03:41:17
Azimuth
Unknown
Elevation
Unknown
Doppler factor
Unknown
Orbital elements
Apogee altitude
411.359 km
Perigee altitude
408.578 km
Semi-major axis
6,788.105 km
Eccentricity
0.0002
Inclination
53.1494°
RAAN
107.4036°
Arg. of periapsis
99.3292°
True anomaly
79.8073°
Mean anomaly
79.7842°
Eccentric anomaly
79.79575°
Mean motion
3.88079 °/min
Orbital period
92.76 mins
BSTAR
-0.000034966
Loading maneuver chart data...
Computing Atmospheric mass density...

Documentation

Showing up to 5 results
|